Location: Ramillies
(50.6368°N, 4.9145°E)
Time: 11:20:32
(UTC+01:00)

ISS - Visible Passes

Search period start: 21 November 2017 00:00
Search period end: 01 December 2017 00:00
Orbit: 402 x 407 km, 51.6° (Epoch: 21 November)

Date Brightness Start Highest point End Pass type
(mag) Time Alt. Az. Time Alt. Az. Time Alt. Az.
27 Nov -1.0 19:07:38 10° S 19:07:53 11° S 19:07:53 11° S visible
28 Nov -1.4 18:16:43 10° SSE 18:17:52 11° SE 18:17:53 11° SE visible
29 Nov -2.1 18:58:30 10° SW 19:00:27 26° S 19:00:27 26° S visible
30 Nov -2.1 18:06:41 10° SSW 18:09:15 21° SE 18:10:17 18° ESE visible
30 Nov -0.9 19:42:06 10° WSW 19:42:56 17° WSW 19:42:56 17° WSW visible
